TimeEST,TemperatureF,Dew PointF,Humidity,Sea Level PressureIn,VisibilityMPH,Wind Direction,Wind SpeedMPH,Gust SpeedMPH,PrecipitationIn,Events,Conditions,WindDirDegrees,DateUTC
12:56 AM,35.1,21.0,57,30.10,10.0,ENE,4.6,-,N/A,,Clear,70,2013-02-21 05:56:00
1:56 AM,35.1,19.9,54,30.12,10.0,Calm,Calm,-,N/A,,Clear,0,2013-02-21 06:56:00
2:56 AM,32.0,21.9,66,30.13,10.0,Calm,Calm,-,N/A,,Clear,0,2013-02-21 07:56:00
3:56 AM,35.1,16.0,46,30.12,10.0,NNE,3.5,-,N/A,,Clear,20,2013-02-21 08:56:00
4:56 AM,35.1,14.0,42,30.13,10.0,NE,5.8,-,N/A,,Clear,40,2013-02-21 09:56:00
5:56 AM,34.0,14.0,44,30.15,10.0,NNE,4.6,-,N/A,,Clear,20,2013-02-21 10:56:00
6:56 AM,33.1,14.0,46,30.17,10.0,Calm,Calm,-,N/A,,Clear,0,2013-02-21 11:56:00
7:56 AM,36.0,16.0,44,30.19,10.0,ENE,5.8,-,N/A,,Clear,60,2013-02-21 12:56:00
8:56 AM,41.0,14.0,33,30.21,10.0,ENE,10.4,-,N/A,,Clear,70,2013-02-21 13:56:00
9:56 AM,45.0,14.0,29,30.22,10.0,East,8.1,-,N/A,,Clear,80,2013-02-21 14:56:00
11:56 AM,52.0,16.0,24,30.18,10.0,ESE,5.8,-,N/A,,Clear,110,2013-02-21 16:56:00
12:56 PM,55.0,16.0,22,30.14,10.0,East,8.1,-,N/A,,Clear,90,2013-02-21 17:56:00
1:56 PM,57.0,17.1,21,30.10,10.0,SE,4.6,-,N/A,,Clear,140,2013-02-21 18:56:00
2:56 PM,59.0,17.1,20,30.09,10.0,Calm,Calm,-,N/A,,Clear,0,2013-02-21 19:56:00
3:56 PM,60.1,21.0,22,30.07,10.0,NNW,3.5,-,N/A,,Clear,340,2013-02-21 20:56:00
4:56 PM,62.1,19.9,20,30.06,10.0,Calm,Calm,-,N/A,,Clear,0,2013-02-21 21:56:00
5:56 PM,57.9,19.9,23,30.06,10.0,ESE,6.9,-,N/A,,Clear,110,2013-02-21 22:56:00
6:56 PM,54.0,26.1,34,30.04,10.0,ENE,11.5,-,N/A,,Clear,70,2013-02-21 23:56:00
7:56 PM,55.0,23.0,29,30.08,10.0,ENE,6.9,-,N/A,,Clear,70,2013-02-22 00:56:00
8:56 PM,53.1,28.0,38,30.11,10.0,NE,9.2,-,0.00,Rain,Light Rain,50,2013-02-22 01:56:00
9:56 PM,53.1,28.0,38,30.12,10.0,ENE,9.2,-,0.00,,Mostly Cloudy,60,2013-02-22 02:56:00
10:56 PM,50.0,32.0,50,30.14,10.0,East,9.2,-,0.00,Rain,Light Rain,80,2013-02-22 03:56:00
11:56 PM,52.0,28.0,40,30.14,10.0,ENE,12.7,-,0.00,,Overcast,60,2013-02-22 04:56:00